Weather History for KSGF - July, 2013

Change the Weather History Date:

Wednesday, July 3, 2013

  Actual Average Record
Temperature  
Mean Temperature 71 °F 77 °F  
Max Temperature 84 °F 88 °F 98 °F (1911)
Min Temperature 57 °F 67 °F 52 °F (1968)
Degree Days  
Heating Degree Days 0 0  
Month to date heating degree days 0 0  
Since 1 June heating degree days 14 9  
Since 1 July heating degree days 0 0  
Cooling Degree Days 6 12  
Month to date cooling degree days 14 36  
Year to date cooling degree days 425 414  
Since 1 June cooling degree days 298 299  
Growing Degree Days 20 (Base 50)    
Moisture  
Dew Point 54 °F    
Average Humidity 61    
Maximum Humidity 87    
Minimum Humidity 34    
Precipitation  
Precipitation 0.49 in 0.14 in 3.26 in (1951)
Month to date precipitation 0.49 0.43  
Year to date precipitation 26.47 23.31  
Snow  
Snow 0.00 in - - ()
Month to date snowfall 0.0  
Since 1 June snowfall 0.0  
Since 1 July snowfall 0.0  
Snow Depth 0.00 in    
Sea Level Pressure  
Sea Level Pressure 30.06 in    
Wind  
Wind Speed 6 mph (North)    
Max Wind Speed 16 mph    
Max Gust Speed -    
Visibility 9 miles    
Events Rain , Thunderstorm    
T = Trace of Precipitation, MM = Missing Value Source: NWS Daily Summary

Daily Weather History Graph

Daily Weather History Graph

Search for Another Location

Airport or City:

Trip Planner

Search our weather history database for the weather conditions in past years. The results will help you decide how hot, cold, wet, or windy it might be!

Date:

Astronomy

Jul. 03, 2013 Rise Set
Actual Time 5:58 AM CDT 8:37 PM CDT
Civil Twilight 5:27 AM CDT 9:08 PM CDT
Nautical Twilight 4:48 AM CDT 9:46 PM CDT
Astronomical Twilight 4:05 AM CDT 10:29 PM CDT
Moon 2:33 AM CDT (7/3) 4:50 PM CDT (7/3)
Length of Visible Light 15h 41m
Length of Day
14h 39m
Waning Crescent, 18% of the Moon is Illuminated
Jul 3
Waning Crescent
Jul 8
New
Jul 15
First Quarter
Jul 22
Full
Jul 29
Last Quarter

Hourly Weather History & Observations

Time (CDT) Temp. Heat Index Dew Point Humidity Pressure Visibility Wind Dir Wind Speed Gust Speed Precip Events Conditions
12:52 AM 61.0 °F - 54.0 °F 78% 30.06 in 10.0 mi SSE 3.5 mph - N/A   Clear
1:52 AM 59.0 °F - 53.1 °F 81% 30.06 in 10.0 mi South 4.6 mph - N/A   Clear
2:52 AM 61.0 °F - 53.1 °F 75% 30.05 in 10.0 mi South 3.5 mph - N/A   Clear
3:52 AM 57.9 °F - 52.0 °F 81% 30.05 in 10.0 mi South 4.6 mph - N/A   Clear
4:52 AM 57.0 °F - 52.0 °F 83% 30.05 in 10.0 mi SSE 5.8 mph - N/A   Clear
5:52 AM 57.0 °F - 53.1 °F 87% 30.06 in 10.0 mi SSE 6.9 mph - N/A   Clear
6:52 AM 59.0 °F - 55.0 °F 87% 30.07 in 10.0 mi SSE 6.9 mph - N/A   Clear
7:52 AM 63.0 °F - 55.9 °F 78% 30.08 in 10.0 mi South 4.6 mph - N/A   Partly Cloudy
8:52 AM 69.1 °F - 55.9 °F 63% 30.10 in 10.0 mi SW 4.6 mph - N/A   Partly Cloudy
9:52 AM 75.0 °F - 55.9 °F 51% 30.10 in 10.0 mi West 6.9 mph - N/A   Partly Cloudy
10:52 AM 78.1 °F - 55.0 °F 45% 30.09 in 10.0 mi West 5.8 mph - N/A   Clear
11:52 AM 79.0 °F - 54.0 °F 42% 30.09 in 10.0 mi West 6.9 mph - N/A   Clear
12:52 PM 81.0 °F 80.5 °F 54.0 °F 39% 30.08 in 10.0 mi NW 8.1 mph - N/A   Partly Cloudy
1:52 PM 79.0 °F - 54.0 °F 42% 30.06 in 10.0 mi NNW 5.8 mph - N/A   Scattered Clouds
2:52 PM 79.0 °F - 54.0 °F 42% 30.05 in 10.0 mi Variable 3.5 mph - N/A   Overcast
3:52 PM 80.1 °F - 52.0 °F 38% 30.03 in 10.0 mi Calm Calm - N/A   Overcast
4:52 PM 82.9 °F 81.9 °F 54.0 °F 37% 30.02 in 10.0 mi ENE 4.6 mph - N/A   Mostly Cloudy
5:52 PM 82.0 °F - 51.1 °F 34% 30.01 in 10.0 mi Calm Calm - N/A   Clear
6:52 PM 81.0 °F - 52.0 °F 36% 30.00 in 10.0 mi Calm Calm - N/A   Overcast
7:52 PM 77.0 °F - 54.0 °F 45% 30.01 in 10.0 mi NE 10.4 mph - N/A   Scattered Clouds
8:12 PM 75.9 °F - 53.1 °F 45% 30.04 in 10.0 mi NNE 9.2 mph - N/A Thunderstorm Partly Cloudy
8:52 PM 70.0 °F - 55.9 °F 61% 30.03 in 10.0 mi North 10.4 mph - N/A   Mostly Cloudy
9:00 PM 69.1 °F - 57.0 °F 65% 30.05 in 10.0 mi North 6.9 mph - N/A Thunderstorm Mostly Cloudy
9:15 PM 68.0 °F - 57.0 °F 68% 30.06 in 10.0 mi NNW 8.1 mph - N/A   Scattered Clouds
9:52 PM 69.1 °F - 54.0 °F 58% 30.04 in 10.0 mi North 12.7 mph - N/A   Scattered Clouds
10:11 PM 70.0 °F - 54.0 °F 57% 30.08 in 10.0 mi North 13.8 mph - N/A Thunderstorm Overcast
10:31 PM 68.0 °F - 54.0 °F 61% 30.09 in 10.0 mi North 12.7 mph - N/A Thunderstorm Thunderstorm
10:44 PM 63.0 °F - 55.9 °F 78% 30.13 in 1.8 mi North - - 0.11 in Rain , Thunderstorm Heavy Thunderstorms and Rain
10:52 PM 63.0 °F - 55.9 °F 78% 30.09 in 1.5 mi NNE 13.8 mph - 0.37 in Rain , Thunderstorm Heavy Thunderstorms and Rain
10:56 PM 64.0 °F - 55.9 °F 75% 30.12 in 3.0 mi NE 9.2 mph - 0.02 in Rain , Thunderstorm Heavy Thunderstorms and Rain
11:34 PM 64.0 °F - 57.0 °F 78% 30.10 in 10.0 mi ENE 11.5 mph - 0.12 in Rain , Thunderstorm Light Thunderstorms and Rain
11:41 PM 64.9 °F - 55.9 °F 73% 30.10 in 10.0 mi NE 12.7 mph - 0.12 in Rain , Thunderstorm Light Rain
11:52 PM 64.0 °F - 55.9 °F 75% 30.07 in 10.0 mi North 6.9 mph - 0.12 in Rain , Thunderstorm Light Rain